Weather History for KPYM - February, 2012

Change the Weather History Date:

Friday, February 24, 2012

  Actual Average Record
Temperature  
Mean Temperature 37 °F -  
Max Temperature 44 °F 41 °F 60 °F (1984)
Min Temperature 30 °F 23 °F -8 °F (2015)
Degree Days  
Heating Degree Days 28    
Moisture  
Dew Point 35 °F    
Average Humidity 88    
Maximum Humidity 100    
Minimum Humidity 57    
Precipitation  
Precipitation 0.34 in - - ()
Sea Level Pressure  
Sea Level Pressure 29.56 in    
Wind  
Wind Speed 4 mph (ESE)    
Max Wind Speed 16 mph    
Max Gust Speed 31 mph    
Visibility 6 miles    
Events Rain , Snow    
Averages and records for this station are not official NWS values.
T = Trace of Precipitation, MM = Missing Value Source: NWS Daily Summary

Daily Weather History Graph

Daily Weather History Graph

Search for Another Location

Airport or City:

Trip Planner

Search our weather history database for the weather conditions in past years. The results will help you decide how hot, cold, wet, or windy it might be!

Date:

Astronomy

Feb. 24, 2012 Rise Set
Actual Time 6:26 AM EST 5:26 PM EST
Civil Twilight 5:58 AM EST 5:54 PM EST
Nautical Twilight 5:25 AM EST 6:27 PM EST
Astronomical Twilight 4:53 AM EST 6:59 PM EST
Moon 7:16 AM EST (2/24) 8:31 PM EST (2/24)
Length of Visible Light 11h 56m
Length of Day
11h 00m
Waxing Crescent, 7% of the Moon is Illuminated
Feb 24
Waxing Crescent
Feb 29
First Quarter
Mar 8
Full
Mar 14
Last Quarter
Mar 22
New

Hourly Weather History & Observations

Time (EST) Temp. Windchill Dew Point Humidity Pressure Visibility Wind Dir Wind Speed Gust Speed Precip Events Conditions
12:52 AM 36.0 °F 33.3 °F 21.9 °F 57% 29.81 in 10.0 mi NNW 3.5 mph - N/A   Clear
1:52 AM 30.9 °F 27.5 °F 21.9 °F 69% 29.78 in 10.0 mi NNE 3.5 mph - N/A   Clear
2:52 AM 33.1 °F 28.7 °F 25.0 °F 72% 29.75 in 10.0 mi East 4.6 mph - N/A   Overcast
3:52 AM 35.1 °F - 26.1 °F 70% 29.79 in 10.0 mi Calm Calm - N/A   Overcast
4:52 AM 35.1 °F - 26.1 °F 70% 29.78 in 10.0 mi Calm Calm - N/A   Overcast
5:52 AM 36.0 °F - 27.0 °F 70% 29.77 in 10.0 mi Calm Calm - N/A   Overcast
6:52 AM 37.0 °F - 28.0 °F 70% 29.77 in 9.0 mi Calm Calm - 0.01 in Rain Light Rain
7:11 AM 35.6 °F 32.8 °F 28.4 °F 75% 29.78 in 2.5 mi SSE 3.5 mph - 0.00 in Snow Light Snow
7:20 AM 33.8 °F - 28.4 °F 81% 29.77 in 1.5 mi Calm Calm - 0.01 in Snow Light Snow
7:31 AM 33.8 °F - 30.2 °F 87% 29.78 in 1.0 mi Calm Calm - 0.01 in Snow Light Snow
7:42 AM 33.8 °F - 30.2 °F 87% 29.79 in 3.0 mi Calm Calm - 0.02 in Snow Light Snow
7:52 AM 33.1 °F 30.0 °F 30.0 °F 89% 29.79 in 6.0 mi ESE 3.5 mph - 0.02 in   Overcast
8:15 AM 33.8 °F - 32.0 °F 93% 29.78 in 4.0 mi Calm Calm - 0.00 in Snow Light Snow
8:43 AM 33.8 °F 30.8 °F 32.0 °F 93% 29.78 in 2.5 mi ENE 3.5 mph - 0.00 in Snow Light Snow
8:52 AM 34.0 °F - 32.0 °F 92% 29.79 in 1.8 mi Calm Calm - 0.01 in Snow Light Snow
9:10 AM 33.8 °F - 30.2 °F 87% 29.78 in 1.0 mi Calm Calm - 0.02 in Snow Light Snow
9:37 AM 33.8 °F - 30.2 °F 87% 29.77 in 1.0 mi Calm Calm - 0.05 in Snow Light Snow
9:52 AM 33.1 °F - 32.0 °F 96% 29.77 in 3.0 mi Calm Calm - 0.05 in Rain Light Rain
11:41 AM 35.6 °F 29.2 °F 33.8 °F 93% 29.69 in 8.0 mi ESE 8.1 mph - 0.00 in   Overcast
11:52 AM 36.0 °F 30.3 °F 34.0 °F 93% 29.70 in 9.0 mi East 6.9 mph - 0.00 in   Overcast
12:52 PM 37.0 °F 31.6 °F 35.1 °F 93% 29.65 in 10.0 mi East 6.9 mph - N/A   Overcast
1:52 PM 37.9 °F 30.9 °F 36.0 °F 93% 29.62 in 10.0 mi East 10.4 mph - N/A   Overcast
2:52 PM 39.0 °F 33.4 °F 37.0 °F 93% 29.60 in 10.0 mi East 8.1 mph - 0.00 in   Overcast
3:52 PM 39.9 °F 35.1 °F 37.9 °F 93% 29.57 in 8.0 mi East 6.9 mph - N/A   Overcast
4:52 PM 39.9 °F 35.8 °F 37.9 °F 93% 29.54 in 7.0 mi ESE 5.8 mph - N/A   Overcast
5:05 PM 39.2 °F 35.0 °F 39.2 °F 100% 29.53 in 8.0 mi East 5.8 mph - N/A   Overcast
5:52 PM 39.9 °F 35.1 °F 39.0 °F 97% 29.50 in 6.0 mi ESE 6.9 mph - N/A   Overcast
6:49 PM 41.0 °F 36.4 °F 39.2 °F 93% 29.47 in 2.5 mi SE 6.9 mph - 0.03 in Rain Rain
6:52 PM 41.0 °F 35.2 °F 39.9 °F 96% 29.47 in 2.5 mi ESE 9.2 mph - 0.03 in Rain Rain
7:00 PM 41.0 °F 36.4 °F 39.2 °F 93% 29.45 in 3.0 mi ESE 6.9 mph - 0.02 in Rain Rain
7:45 PM 42.8 °F 37.0 °F 39.2 °F 87% 29.35 in 3.0 mi ESE 10.4 mph - 0.09 in Rain Light Rain
7:52 PM 42.1 °F 38.4 °F 41.0 °F 96% 29.37 in 4.0 mi SE 5.8 mph - 0.09 in Rain Light Rain
8:05 PM 42.8 °F 37.0 °F 41.0 °F 93% 29.33 in 2.0 mi ESE 10.4 mph 16.1 mph 0.00 in Rain Light Rain
8:50 PM 42.8 °F 39.3 °F 42.8 °F 100% 29.30 in 3.0 mi SSE 5.8 mph - 0.01 in Rain Light Rain
8:52 PM 43.0 °F 38.8 °F 42.1 °F 97% 29.30 in 3.0 mi SSE 6.9 mph - 0.01 in Rain Light Rain
9:52 PM 44.1 °F - 43.0 °F 96% 29.23 in 4.0 mi Calm Calm - 0.04 in Rain Light Rain
10:03 PM 44.6 °F 42.2 °F 42.8 °F 93% 29.20 in 2.0 mi SE 4.6 mph - 0.01 in Rain Rain
10:36 PM 44.6 °F 41.4 °F 44.6 °F 100% 29.17 in 1.0 mi SW 5.8 mph - 0.02 in   Overcast
10:52 PM 44.1 °F 37.7 °F 42.1 °F 93% 29.21 in 1.2 mi West 12.7 mph 31.1 mph 0.05 in Rain Rain
10:56 PM 44.6 °F 37.4 °F 42.8 °F 93% 29.20 in 4.0 mi West 16.1 mph 31.1 mph 0.01 in Rain Light Rain
11:23 PM 42.8 °F 36.6 °F 41.0 °F 93% 29.21 in 10.0 mi West 11.5 mph 17.3 mph 0.02 in Rain Light Rain
11:45 PM 41.0 °F 33.9 °F 39.2 °F 93% 29.19 in 10.0 mi WNW 12.7 mph - 0.03 in Rain Light Rain
11:52 PM 41.0 °F 35.8 °F 39.0 °F 93% 29.20 in 10.0 mi West 8.1 mph 18.4 mph 0.03 in Rain Light Rain